Theta_e
325 326 326 325 323 323 323 323 324 324 324 324 324 324 324 324 324 325 325 325 324 325 325 326 327 328 328 327 327 326 326 326
329 329 329 327 325 325 325 325 325 324 324 324 323 323 323 324 323 322 321 321 322 323 324 325 326 326 326 325 324 324 324 324
332 331 331 329 326 326 326 327 326 327 326 325 323 323 324 323 320 319 317 318 320 320 320 321 323 324 324 323 322 321 320 320
333 332 332 329 327 327 326 327 327 327 327 326 325 325 325 324 322 321 319 317 316 317 317 317 317 318 319 318 318 317 317 318
334 333 332 328 328 328 327 326 327 327 327 326 326 325 324 324 322 320 318 318 315 315 312 314 315 314 314 314 313 314 316 318
335 334 332 329 327 328 328 328 328 328 328 327 327 325 323 322 318 317 317 316 315 313 313 313 312 311 310 309 308 309 315 314
336 335 329 323 323 326 327 327 328 329 328 327 327 325 323 321 319 318 317 317 316 316 315 312 306 304 303 302 302 302 303 307
335 332 323 322 322 322 324 326 328 327 326 326 327 325 321 318 316 314 314 316 317 318 315 311 307 303 303 303 303 303 303 303
333 325 321 319 320 320 320 320 320 320 318 318 318 316 314 313 312 312 312 313 316 318 316 312 307 304 303 303 303 303 302 302
329 322 319 317 318 317 316 315 317 317 315 314 313 312 311 311 311 310 311 312 313 315 315 312 308 304 304 304 303 302 302 302
324 320 318 316 316 315 313 313 313 312 311 311 311 310 310 310 310 310 310 311 311 311 312 311 308 306 305 304 303 302 302 302
319 318 317 315 315 313 311 310 310 310 310 309 309 309 309 309 309 310 310 311 311 310 311 310 308 306 305 304 305 304 302 302
317 317 314 313 313 310 309 309 309 309 309 309 309 308 308 307 307 308 309 312 312 310 310 309 308 305 305 305 305 304 304 304
314 310 309 308 307 307 307 307 309 310 310 310 309 309 308 308 307 307 308 310 310 311 309 308 307 306 306 306 307 306 303 303
308 307 307 308 309 309 309 309 309 309 308 307 306 306 305 304 305 305 306 308 308 309 309 308 308 306 305 306 308 308 306 303
310 309 309 309 308 308 306 306 306 305 305 304 303 304 304 304 304 304 305 306 307 307 307 307 306 307 304 303 302 302 306 306
309 309 309 308 307 306 305 305 305 304 304 302 301 301 302 303 302 302 303 304 305 304 304 303 303 304 303 302 300 299 299 300
309 309 308 308 306 306 305 305 305 304 304 303 302 301 301 301 301 301 302 301 299 299 299 299 299 299 299 299 299 299 298 298
308 308 308 307 306 305 305 305 305 304 303 302 301 300 300 299 299 299 299 298 298 298 297 296 296 295 294 294 293 292 292 292
308 307 307 306 305 304 305 305 304 303 301 300 299 298 298 298 298 298 298 298 298 298 296 295 294 293 292 292 292 292 292 292
Wind_Speed
11 9 6 4 4 4 3 3 2 3 3 2 1 2 2 3 3 3 3 5 5 5 5 4 4 4 4 4 3 2 2 3
10 7 5 3 3 3 3 3 2 2 2 2 3 4 5 4 4 4 5 6 7 6 5 5 4 5 4 3 3 3 4 4
10 8 5 3 3 2 2 1 0 2 3 4 4 4 4 5 5 5 6 6 7 8 8 6 5 6 7 6 6 6 5 5
12 10 7 4 3 3 2 2 2 3 5 6 5 5 7 7 8 9 9 9 9 9 9 9 9 7 7 8 5 6 5 5
15 11 9 7 6 6 6 5 5 5 6 7 8 8 9 9 10 11 10 10 10 10 10 9 9 9 8 8 8 6 4 3
16 13 11 9 8 8 9 9 8 8 9 9 10 11 10 11 12 12 12 12 11 11 11 11 10 9 9 8 7 5 2 2
16 14 12 9 7 8 9 10 10 10 11 12 12 12 13 13 14 14 14 14 13 12 11 12 11 8 6 5 4 3 2 2
17 15 11 8 6 7 7 9 10 11 11 12 13 14 16 17 17 17 17 16 15 15 13 12 11 10 7 5 4 3 2 1
18 16 11 9 8 7 6 7 9 10 11 12 13 14 16 18 19 19 19 18 18 17 16 14 13 12 10 8 6 4 4 3
19 17 12 10 9 8 8 9 9 11 12 14 14 15 17 19 21 22 21 20 20 19 17 16 15 13 12 9 8 7 6 5
19 16 13 11 10 9 8 9 9 10 13 15 17 17 19 22 24 25 24 23 24 22 20 20 16 15 14 13 13 11 9 8
15 14 13 12 11 9 10 9 10 12 14 17 19 21 22 24 27 30 29 28 28 27 25 22 22 18 15 15 15 14 14 13
14 14 11 10 8 8 8 8 12 15 18 22 23 24 24 26 28 30 30 30 33 32 28 24 21 21 12 17 18 18 18 16
6 3 4 6 9 10 12 16 15 18 20 23 24 26 28 27 25 26 27 25 28 34 30 24 20 20 17 16 7 12 14 17
5 6 7 8 8 10 11 11 13 14 18 23 25 22 21 24 24 24 25 24 26 29 29 29 28 21 24 16 6 10 7 9
9 13 14 13 12 12 13 11 12 14 17 20 26 26 27 27 27 26 25 22 23 23 23 25 24 26 15 20 12 8 9 9
14 13 15 15 16 16 14 12 11 17 22 26 28 27 28 27 25 25 23 19 17 15 15 13 15 22 18 11 10 7 4 8
13 14 14 17 17 15 14 14 19 21 25 29 31 29 29 28 22 17 13 6 4 9 10 10 7 6 4 4 2 5 4 3
14 16 16 19 18 19 20 21 23 24 28 29 29 28 21 18 11 4 6 12 12 10 9 8 10 9 9 7 5 3 2 2
16 16 16 19 21 20 19 20 24 28 26 28 26 23 16 6 3 6 7 5 5 6 8 9 8 9 9 8 6 5 5 7
Wind_Direction
146 135 126 113 94 75 56 45 41 30 17 5 355 344 349 1 6 11 352 346 348 352 350 348 355 19 28 19 15 357 348 354
155 156 154 150 122 111 88 71 53 36 3 326 322 324 325 328 331 339 338 336 335 335 334 336 338 333 338 338 335 339 5 352
179 182 186 191 176 145 108 94 128 346 339 327 314 312 316 324 327 326 326 323 316 311 310 311 308 311 313 319 316 313 319 330
198 198 208 228 236 237 228 250 272 319 329 329 319 312 311 313 317 317 317 316 309 303 303 303 304 301 297 307 318 315 322 322
212 208 218 234 242 249 250 259 272 292 304 310 311 309 301 298 302 303 303 302 304 304 303 301 303 307 308 306 309 311 307 325
218 219 226 239 247 254 252 253 268 286 296 292 299 304 301 300 302 301 299 299 299 300 304 305 304 302 298 296 297 311 334 33
225 228 229 239 248 258 265 256 262 274 280 280 285 290 292 294 294 293 293 292 291 290 290 295 299 300 297 295 298 302 329 34
225 223 227 235 249 262 258 258 263 272 279 281 280 283 288 291 292 292 292 290 286 285 283 281 284 285 280 272 270 279 264 309
216 217 221 235 245 255 263 265 269 274 281 280 278 280 285 289 289 288 288 288 284 279 277 272 273 274 271 266 263 254 237 215
213 211 213 227 242 257 267 273 277 284 292 288 284 284 281 283 283 284 287 287 281 275 268 266 267 261 261 262 260 257 247 238
204 209 216 228 237 250 262 269 282 289 290 290 288 289 288 281 281 281 279 277 273 267 262 260 259 255 254 255 256 252 243 241
205 208 221 236 242 252 262 275 291 298 306 305 302 294 290 284 281 278 274 268 264 260 253 253 252 253 251 253 250 250 250 241
203 212 228 245 259 284 303 316 322 319 318 316 316 313 308 298 288 284 279 267 263 261 256 248 242 243 243 254 257 254 248 240
205 241 295 315 314 310 312 311 314 321 322 321 320 316 313 310 302 293 284 273 265 258 250 245 247 230 229 246 257 246 238 232
349 351 358 11 8 358 346 339 332 329 329 326 324 324 322 316 311 303 294 280 269 260 253 245 245 242 226 230 241 249 254 211
61 75 62 39 19 7 1 350 337 331 331 328 328 327 325 319 312 308 299 288 276 274 266 256 250 250 243 232 235 248 243 245
58 45 28 13 6 6 5 5 352 341 336 333 330 326 321 316 312 307 300 289 281 275 266 264 261 253 240 225 212 207 202 249
26 14 5 1 356 352 354 358 354 339 337 335 331 326 320 316 313 309 311 313 78 81 75 65 58 72 71 38 298 244 195 234
5 355 353 356 0 356 350 348 343 339 334 325 318 316 311 313 320 346 100 107 99 91 64 36 22 27 18 1 326 321 327 266
0 359 349 350 349 346 336 334 334 326 322 316 313 310 303 300 124 106 105 75 30 344 1 5 9 8 5 356 327 315 283 257